Wind_Speed
14 14 13 13 13 12 12 11 11 10 10 10 10 10 10 10 10 10 10 9 9 8 8 8 8 9 9 9 9 9 9 10 10 11 12 12 12 13 13 13 13 14 15
15 14 14 14 14 14 13 12 12 12 12 11 11 11 11 10 10 10 10 10 9 9 9 9 10 9 9 9 9 10 10 10 11 13 13 13 13 13 14 15 15 16 16
15 15 15 15 14 14 14 14 13 13 12 12 12 12 12 12 11 11 11 11 11 10 10 10 10 10 10 10 10 11 11 12 13 13 14 14 15 15 16 16 17 17 18
16 15 15 15 15 15 15 15 15 14 14 14 13 13 13 13 13 13 13 12 12 12 12 12 12 12 12 12 12 13 13 13 14 14 15 16 16 16 17 17 18 19 19
17 16 17 16 16 17 16 16 16 16 16 16 15 14 14 14 13 13 13 13 13 13 13 13 13 13 13 13 14 14 14 15 15 16 16 17 17 17 18 19 19 20 20
18 18 18 17 17 17 17 17 17 16 16 16 16 15 14 14 14 14 14 14 14 14 14 14 14 14 15 15 15 16 16 17 17 17 18 18 18 19 19 20 21 21 22
20 20 19 19 18 18 18 18 18 17 17 17 16 16 16 15 15 15 15 16 16 16 16 16 16 16 16 17 17 17 18 18 19 19 19 19 20 20 21 22 23 23 24
21 21 21 20 20 20 19 19 19 18 18 18 17 17 16 17 16 16 16 17 17 17 17 17 17 17 18 18 18 18 19 20 20 20 20 21 21 22 23 24 24 24 24
22 22 21 21 21 21 20 20 20 20 20 19 19 18 18 18 17 17 17 17 17 18 18 18 18 19 19 19 19 20 20 21 21 22 22 23 23 23 24 24 25 25 25
22 22 22 22 22 22 22 22 21 21 21 20 19 19 19 19 18 19 19 19 19 19 19 19 20 20 20 21 21 22 22 22 23 23 23 23 24 25 25 26 26 26 26
23 23 23 23 23 23 23 23 22 22 22 21 20 20 20 20 20 20 20 20 20 20 20 21 21 21 21 22 23 23 24 24 24 24 24 25 25 26 27 27 27 28 28
24 24 23 23 24 24 24 23 23 23 23 23 22 21 22 22 21 21 21 21 22 22 22 22 23 23 23 23 24 24 25 25 25 25 25 26 26 27 27 28 28 29 29
25 25 24 25 25 25 25 24 24 24 24 23 23 23 23 23 23 23 23 23 23 23 24 24 24 24 25 25 25 26 26 27 27 27 27 27 28 28 29 29 30 30 31
26 26 26 26 26 26 26 26 26 25 24 24 24 24 24 25 25 25 24 25 25 25 25 25 26 26 26 26 27 28 28 29 29 29 28 29 29 29 30 30 31 31 31
27 27 27 27 27 28 28 27 27 27 26 26 26 27 27 26 26 26 26 26 26 26 26 27 27 28 28 28 29 30 30 30 30 30 30 30 30 31 31 32 32 32 32
29 29 28 29 29 29 29 28 28 29 29 28 28 28 28 28 29 28 28 28 28 28 28 28 28 29 29 30 31 32 32 32 32 32 32 32 32 33 33 33 32 32 32
30 30 30 30 30 30 30 30 30 30 30 30 30 30 30 30 30 29 29 29 29 29 29 29 29 30 30 31 32 33 33 33 33 33 34 34 34 34 34 34 33 34 34
30 31 31 31 31 31 30 30 30 31 31 31 31 31 30 30 30 30 30 30 30 30 30 30 31 31 31 32 33 33 33 33 33 34 34 34 35 35 35 35 35 36 36
31 31 31 31 31 31 31 31 31 32 32 32 32 31 32 32 32 32 31 31 31 31 31 32 32 33 33 33 33 33 33 34 34 34 35 35 35 35 36 36 37 38 38
32 32 32 31 31 31 32 32 32 33 34 34 34 33 33 33 33 33 33 33 33 33 32 32 32 33 33 34 34 34 35 36 36 36 36 36 36 37 37 38 38 38 37
32 32 32 32 33 33 33 33 33 34 34 34 34 34 34 34 35 35 36 35 34 34 33 33 33 34 34 35 35 36 37 37 37 37 37 37 37 38 38 38 38 38 37
33 33 33 34 34 34 34 34 34 35 36 35 35 35 35 36 36 36 36 35 35 35 35 35 35 35 35 36 37 38 38 37 37 37 38 38 38 38 38 38 38 38 37
33 33 33 34 34 34 34 34 34 34 35 35 35 35 36 36 36 35 35 35 35 35 36 36 36 36 37 38 39 38 38 37 37 37 38 38 38 38 38 38 38 37 37
33 33 33 33 33 34 34 34 34 34 35 35 35 35 35 35 35 35 35 36 36 36 36 37 37 37 38 39 38 38 37 37 37 37 37 37 37 38 38 38 38 38 38
32 33 33 34 34 35 35 35 35 35 35 35 35 35 35 36 36 36 36 37 38 38 37 37 38 38 38 38 38 38 38 37 38 38 38 38 38 38 39 39 38 38 38
33 34 35 35 35 35 36 36 36 36 36 36 35 36 36 36 36 37 37 37 37 38 38 38 38 39 39 38 38 38 39 39 39 39 39 38 38 38 39 39 39 39 38
Wind_Direction
261 260 260 258 259 263 264 263 262 262 262 266 272 278 280 276 273 271 270 270 269 270 277 283 287 289 289 289 290 291 292 295 298 303 307 309 308 306 305 306 306 306 306
260 258 258 260 260 261 261 261 259 261 263 266 268 273 275 273 273 273 271 267 267 270 276 281 283 287 290 291 294 293 292 294 298 302 304 303 303 304 303 303 303 304 305
259 257 257 257 258 260 260 260 261 263 264 266 270 270 272 272 271 272 271 266 266 269 274 278 280 282 288 290 293 295 296 296 298 301 302 302 301 301 301 302 303 304 304
258 256 255 257 258 259 260 261 262 262 263 265 269 271 269 270 270 269 271 269 267 269 272 275 277 281 286 288 291 293 295 297 298 301 301 300 302 302 302 302 303 304 303
256 255 255 257 260 259 260 261 263 263 264 265 267 269 268 269 268 268 268 270 269 270 271 276 278 281 283 286 289 292 293 295 296 298 299 300 302 303 303 303 303 303 302
255 254 255 256 260 260 259 261 263 263 264 264 264 266 268 268 266 267 268 271 272 271 273 276 279 280 282 285 288 290 292 293 295 297 299 299 300 302 302 302 302 302 302
255 254 255 256 258 260 260 261 263 262 263 264 262 265 266 265 265 266 268 271 272 272 273 275 279 281 285 286 288 290 291 292 294 296 297 297 298 300 302 302 301 301 300
255 255 255 256 256 259 262 262 262 263 263 264 263 265 266 264 264 266 269 271 273 273 274 276 279 283 287 288 289 291 292 293 293 294 295 297 297 299 301 302 301 301 300
255 255 256 257 258 258 261 261 262 262 263 264 263 265 265 265 266 267 271 272 274 275 274 276 280 284 286 287 289 291 292 292 292 292 293 295 297 298 299 301 301 301 300
256 255 256 257 259 259 260 261 261 261 262 262 264 264 265 266 267 268 271 272 273 273 274 276 279 282 285 288 290 291 291 292 292 292 292 294 295 297 298 300 301 300 300
256 256 256 258 259 260 260 261 260 260 260 262 263 263 264 266 269 271 272 273 272 272 274 276 278 279 283 287 289 290 292 293 293 291 292 293 295 297 298 299 300 301 301
256 257 257 258 259 260 261 261 260 259 260 261 262 262 264 265 268 271 272 274 273 273 275 277 279 281 284 286 288 288 291 292 292 292 291 293 295 296 298 300 300 301 300
257 257 256 257 259 261 261 261 261 260 260 261 262 263 265 265 267 270 272 273 274 274 276 278 280 282 283 284 286 288 289 290 291 291 290 291 293 294 296 298 299 301 301
260 259 258 258 259 260 260 261 260 260 261 262 263 264 266 267 267 268 271 273 274 275 276 277 279 281 282 284 286 287 287 289 290 290 290 291 292 293 295 297 298 299 300
260 261 261 260 261 260 260 261 260 260 261 261 263 264 266 268 267 268 271 272 274 276 277 278 279 281 283 284 286 287 288 289 289 289 289 289 290 292 294 296 297 297 298
261 261 262 261 262 262 261 261 261 261 261 261 263 265 265 267 267 267 269 272 274 276 277 278 279 282 283 285 286 287 287 287 288 288 288 289 290 291 291 292 294 296 297
261 261 262 262 262 262 262 262 262 261 261 261 262 265 267 268 268 268 269 271 274 275 277 278 280 283 285 286 287 287 287 287 288 287 288 288 289 290 290 290 292 294 295
261 262 262 262 262 261 261 261 261 262 261 262 263 264 265 266 267 268 269 270 273 275 277 279 281 283 286 287 288 288 288 289 289 288 288 289 289 289 289 289 291 293 294
262 262 262 262 261 260 260 260 260 261 262 262 263 263 265 265 267 268 268 269 272 274 277 279 281 283 284 287 288 289 289 290 290 289 289 289 289 288 289 289 290 292 293
261 262 262 261 261 261 260 261 261 262 263 264 265 264 265 265 266 268 269 270 272 274 276 278 280 282 284 285 286 288 291 291 290 290 289 289 289 289 289 290 291 292 293
261 263 263 263 263 263 261 261 263 264 265 266 266 265 264 265 266 268 269 271 273 275 277 278 279 282 284 285 286 288 290 291 291 290 289 289 289 290 290 291 291 292 292
261 262 263 264 263 263 262 262 264 265 266 266 266 265 264 265 266 267 268 269 271 273 276 279 281 283 284 285 287 288 290 291 291 291 291 290 290 290 290 291 291 291 292
260 262 265 266 264 263 264 264 264 266 266 266 266 266 265 265 265 266 267 269 271 273 276 278 281 283 285 287 288 288 290 291 292 292 291 291 291 291 291 291 291 290 291
261 263 264 265 265 264 265 265 265 265 265 265 266 266 265 266 267 266 267 268 270 272 275 279 282 284 286 287 288 288 288 290 291 292 291 291 291 291 291 291 291 290 290
262 264 265 265 266 266 266 266 265 265 265 264 265 265 266 266 266 266 266 269 271 272 275 278 282 284 285 286 286 287 288 289 290 290 290 290 290 290 291 291 290 290 290
263 265 266 267 267 267 267 266 265 265 264 263 264 265 266 266 266 267 268 270 271 272 274 277 281 283 284 284 285 286 287 288 289 289 289 289 290 291 291 291 290 290 289
Height
5845 5846 5846 5847 5847 5847 5847 5847 5847 5847 5847 5847 5847 5847 5846 5846 5846 5846 5845 5845 5845 5844 5844 5843 5842 5841 5840 5840 5839 5838 5837 5836 5834 5833 5831 5829 5828 5826 5824 5822 5820 5818 5816
5841 5842 5843 5843 5844 5844 5844 5844 5844 5844 5844 5844 5844 5844 5844 5843 5843 5843 5842 5842 5842 5841 5841 5840 5840 5839 5838 5837 5836 5835 5834 5833 5831 5830 5828 5826 5824 5823 5821 5819 5816 5814 5812
5837 5838 5839 5839 5840 5840 5840 5840 5841 5841 5841 5841 5841 5841 5840 5840 5840 5839 5839 5839 5838 5838 5838 5837 5836 5836 5835 5834 5833 5832 5830 5829 5828 5826 5824 5823 5821 5819 5817 5815 5812 5810 5808
5833 5834 5834 5835 5835 5836 5836 5836 5837 5837 5837 5837 5837 5837 5837 5837 5836 5836 5835 5835 5835 5834 5834 5834 5833 5832 5832 5831 5829 5828 5827 5825 5824 5822 5820 5818 5816 5814 5812 5810 5808 5805 5803
5828 5829 5830 5830 5831 5831 5832 5832 5833 5833 5833 5833 5833 5833 5833 5833 5832 5832 5832 5831 5831 5830 5830 5830 5829 5828 5828 5827 5826 5824 5823 5821 5819 5818 5816 5814 5812 5810 5807 5805 5803 5800 5797
5823 5824 5825 5826 5826 5827 5827 5828 5828 5828 5828 5828 5828 5828 5828 5828 5828 5828 5828 5827 5827 5826 5826 5825 5825 5824 5823 5822 5821 5820 5818 5817 5815 5813 5811 5809 5807 5805 5802 5799 5797 5794 5792
5818 5819 5820 5820 5821 5822 5822 5823 5823 5823 5823 5823 5824 5824 5824 5824 5824 5824 5823 5823 5822 5822 5821 5821 5820 5819 5818 5817 5816 5815 5813 5811 5810 5808 5806 5803 5801 5799 5796 5794 5790 5788 5785
5812 5813 5814 5815 5816 5816 5817 5817 5818 5818 5818 5818 5819 5819 5819 5819 5819 5819 5819 5818 5818 5817 5816 5816 5815 5815 5813 5812 5811 5810 5808 5806 5804 5802 5800 5798 5795 5793 5790 5787 5784 5781 5778
5806 5807 5808 5809 5810 5811 5811 5812 5812 5813 5813 5813 5813 5814 5814 5814 5814 5814 5813 5813 5812 5812 5811 5811 5810 5809 5808 5807 5806 5804 5802 5800 5798 5796 5794 5791 5789 5786 5783 5780 5777 5774 5771
5799 5800 5801 5803 5803 5804 5805 5805 5806 5807 5807 5807 5808 5808 5808 5808 5808 5808 5808 5807 5807 5807 5806 5805 5805 5804 5803 5801 5799 5798 5796 5794 5791 5789 5787 5785 5782 5779 5776 5773 5769 5766 5763
5792 5793 5795 5796 5797 5797 5798 5799 5799 5800 5800 5801 5801 5802 5802 5802 5802 5802 5802 5801 5801 5800 5800 5799 5798 5797 5796 5794 5793 5791 5789 5787 5784 5782 5780 5777 5775 5772 5769 5765 5762 5759 5755
5785 5786 5788 5789 5790 5790 5791 5792 5792 5793 5794 5794 5795 5795 5796 5796 5796 5796 5795 5795 5794 5794 5793 5792 5792 5791 5789 5787 5786 5784 5781 5779 5777 5775 5772 5770 5767 5764 5761 5757 5754 5751 5747
5778 5779 5780 5781 5782 5783 5784 5784 5785 5786 5786 5787 5788 5788 5788 5789 5789 5789 5788 5788 5787 5787 5786 5785 5784 5783 5782 5780 5778 5776 5774 5771 5769 5767 5764 5762 5759 5756 5753 5749 5746 5742 5739
5769 5771 5772 5773 5774 5775 5776 5777 5778 5778 5779 5780 5780 5781 5781 5781 5781 5781 5780 5780 5779 5779 5778 5778 5777 5775 5774 5772 5770 5768 5765 5763 5761 5758 5756 5753 5750 5747 5744 5741 5738 5734 5731
5761 5762 5764 5765 5766 5767 5768 5769 5769 5770 5771 5772 5772 5772 5773 5773 5773 5773 5772 5772 5771 5771 5770 5769 5768 5767 5765 5763 5761 5759 5757 5754 5752 5750 5747 5744 5741 5738 5736 5732 5729 5725 5722
5753 5754 5755 5756 5757 5758 5758 5760 5760 5761 5762 5763 5763 5764 5764 5764 5764 5764 5764 5764 5763 5762 5761 5760 5759 5758 5756 5754 5752 5749 5747 5745 5742 5740 5737 5735 5732 5729 5726 5723 5720 5716 5713
5743 5745 5746 5747 5747 5748 5749 5750 5751 5752 5752 5753 5754 5754 5755 5755 5755 5755 5754 5754 5754 5753 5752 5751 5750 5748 5746 5744 5742 5739 5737 5734 5732 5729 5727 5724 5721 5719 5716 5713 5710 5707 5703
5734 5735 5736 5737 5737 5738 5739 5740 5741 5741 5742 5743 5744 5744 5745 5745 5745 5745 5745 5744 5744 5743 5743 5741 5740 5738 5736 5734 5732 5729 5726 5724 5721 5719 5716 5713 5710 5707 5705 5702 5699 5696 5693
5724 5725 5726 5726 5727 5728 5729 5730 5731 5731 5732 5733 5733 5734 5734 5735 5735 5735 5734 5734 5734 5733 5733 5732 5730 5728 5726 5724 5722 5719 5716 5714 5711 5708 5705 5702 5699 5696 5694 5691 5688 5685 5682
5714 5715 5715 5716 5717 5718 5718 5719 5720 5721 5721 5722 5722 5723 5723 5724 5724 5724 5724 5724 5724 5723 5722 5721 5720 5718 5716 5713 5711 5708 5706 5703 5700 5697 5694 5691 5688 5685 5682 5680 5677 5674 5671
5703 5704 5705 5706 5706 5707 5708 5708 5709 5710 5710 5711 5711 5711 5712 5712 5713 5713 5713 5713 5712 5712 5711 5710 5709 5707 5705 5703 5700 5698 5695 5691 5688 5685 5682 5679 5676 5674 5671 5668 5665 5662 5659
5693 5693 5694 5694 5695 5696 5697 5697 5698 5698 5698 5699 5699 5699 5700 5700 5701 5701 5701 5701 5701 5701 5700 5699 5698 5696 5694 5691 5689 5686 5683 5680 5677 5674 5671 5668 5665 5662 5659 5656 5653 5650 5647
5682 5682 5683 5683 5684 5684 5685 5685 5686 5686 5687 5687 5687 5687 5688 5688 5689 5689 5690 5690 5690 5689 5689 5687 5686 5684 5682 5680 5677 5674 5671 5669 5666 5662 5659 5656 5654 5651 5648 5645 5642 5639 5636
5671 5671 5672 5672 5672 5673 5673 5674 5674 5674 5675 5675 5675 5675 5676 5676 5677 5678 5678 5678 5678 5678 5677 5676 5674 5673 5670 5668 5665 5662 5660 5657 5654 5651 5648 5645 5642 5639 5636 5633 5630 5627 5624
5660 5660 5660 5661 5661 5661 5661 5662 5662 5662 5662 5663 5663 5664 5664 5664 5665 5665 5666 5666 5666 5665 5665 5664 5662 5660 5658 5656 5653 5651 5648 5646 5643 5639 5636 5633 5631 5628 5625 5622 5619 5616 5613
5649 5649 5649 5649 5649 5649 5649 5649 5649 5649 5650 5650 5651 5651 5652 5652 5652 5653 5653 5653 5653 5653 5652 5651 5650 5648 5646 5644 5641 5639 5636 5634 5631 5628 5624 5622 5619 5616 5613 5610 5607 5604 5601